星链-4003 (STARLINK-4003 )

导读

STARLINK-4003是美国太空探索技术公司(SpaceX)星链(Starlink)星座的组网卫星,于2022年5月18日发射升空,属于星链星座中低轨道互联网卫星,旨在为全球提供高速低延迟宽带网络服务,丰富全球卫星互联网覆盖布局。

Basic Information
目录编号:
52701
目录名称:
STARLINK-4003
国际标识:
2022-053AX
轨道中心:
EARTH
卫星名称:
星链-4003
卫星全名:
星链-4003 (STARLINK-4003 )
卫星状态:
已陨落 最后检测时间 2025-01-08
发射日期:
2022-05-18 UTC
国别 :
美国 (US)
星等 :
--
Orbit Information
数据来源 国际轨道数据
星历时间: 2025-01-08T20:05:18+0800
轨道信息已过期525天
半长轴: 6519.147km
偏心率: 0.0004975
轨道倾角: 53.194°
近地点辐角 268.342°
升交点赤经 219.965°
平近点角 197.136°
近地点: 137.768km
远地点: 144.256km
周期: 87.306分钟
每日圈数: 16.493645
Detailed Information
固有亮度:
5
最大亮度:
2.5
卫星平台:
Starlink v1.5
覆盖范围:
全球
运营商:
太空探索技术公司
运营商所在国:
美国
制造商(研发单位):
太空探索技术公司
制造商所在国:
美国
使用方式:
暂无
Satellite Introduction
星链(Starlink)计划是由太空探索技术公司(SpaceX)提出的一个巨型低轨卫星互联网星座项目,计划在2019年至2024年间在太空搭建由约1.2万颗卫星组成的“星链”网络,其中1584颗将部署在地球上空550千米处的近地轨道,并从2020年开始工作。该卫星仍在工作。